Location: Madrid
(40.4000°N, 3.6830°W)
Time: 22:50:08
(UTC+01:00)

ISS - Pass Details

Date: 16 January 2018
Orbit: 402 x 407 km, 51.6° (Epoch: 23 January)

Event Time Altitude Azimuth Distance (km) Brightness Sun altitude
Exits shadow 07:42:06 12° 260° (W) 1,338 -1.7 -10.2°
Maximum altitude 07:43:37 16° 229° (SW) 1,168 -1.8 -9.9°
Drops below altitude 10° 07:45:39 10° 190° (S) 1,457 -0.9 -9.5°
Sets 07:48:18 0° 167° (SSE) 2,312 0.5 -9.1°
